Regional Weather Roundup
Issued by NWS

Home | Current Version | Previous Version | Graphics & Text | Print | Product List | Glossary Off
Versions: 1 2 3 4 5 6 7 8 9 10 11 12 13 14 15 16 17 18 19 20 21 22 23 24 25 26 27 28 29 30 31 32 33 34 35 36 37 38 39 40 41 42 43 44 45 46 47 48 49 50

000
ASUS43 KDTX 080310
RWRMI
MICHIGAN HOURLY REGIONAL WEATHER ROUNDUP
NATIONAL WEATHER SERVICE DETROIT/PONTIAC MI
1100 PM EDT TUE JUL 07 2015

NOTE: "FAIR" INDICATES FEW OR NO CLOUDS BELOW 12,000 FEET WITH NO
SIGNIFICANT WEATHER AND/OR OBSTRUCTION TO VISIBILITY.

MIZ047>049-052>055-059>063-066>070-074>076-081>083-080400-
SOUTHEAST LOWER MICHIGAN

CITY           SKY/WX    TMP DP  RH WIND       PRES   REMARKS
ADRIAN         CLEAR     60  56  86 NE6       30.04R
ALMA           CLEAR     56  51  81 NW6       30.07R
ANN ARBOR      CLOUDY    63  56  78 NE8       30.03R
BAD AXE        MOCLDY    55  51  87 CALM      30.06R
CARO           MOCLDY    59  56  89 CALM      30.05R
DETROIT CITY   CLOUDY    62  56  80 N6        30.04R
DETROIT        CLOUDY    64  56  75 N7        30.03R
FLINT          CLOUDY    64  54  69 N6        30.05R
GROSSE ILE     LGT RAIN  63  61  94 N9G16     30.02R
HILLSDALE      CLEAR     59  58  94 CALM      30.05R
HOWELL         CLOUDY    62  55  78 CALM      30.05R

CITY           SKY/WX    TMP DP  RH WIND       PRES   REMARKS
JACKSON        CLEAR     59  51  75 N6        30.05R
LAMBERTVILLE   CLOUDY    65  58  79 N5        30.03R
LANSING        CLEAR     57  51  80 CALM      30.06R
LAPEER         CLOUDY    60  58  92 CALM      30.05R
MASON          PTCLDY    56  50  79 CALM      30.05R
MONROE         CLOUDY    64  59  86 N3        30.02R
MT. CLEMENS    CLOUDY    61  58  92 N5        30.02R
PONTIAC        MOCLDY    62  58  86 N5        30.03R
PORT HOPE        N/A     60  53  77 N15G23    30.03R
PORT HURON     MOCLDY    57  54  88 N3        30.04R
TRI CITIES     MOCLDY    61  51  70 N9        30.06R
MIDLAND        FAIR      55  51  87 NW3       30.06R
TROY           CLOUDY    63  58  86 N5        30.05R
SAGINAW HB     CLOUDY    59  54  82 CALM      30.04R
$$
MIZ043>046-050>051-056>058-064>065-071>073-077>080-080400-
SOUTHWEST LOWER MICHIGAN

CITY           SKY/WX    TMP DP  RH WIND       PRES   REMARKS
BATTLE CREEK   PTCLDY    62  55  77 NE5       30.06R
BENTON HARBOR  CLEAR     57  50  77 N6        30.06R
BIG RAPIDS     CLEAR     55  48  78 N3        30.08R
COLDWATER      CLEAR     59  56  92 CALM      30.05R
FREMONT        FAIR      54  51  91 CALM      30.08R
HOLLAND        CLEAR     59  49  69 VRB5      30.07R
GRAND RAPIDS   PTCLDY    60  51  72 N6        30.06R
IONIA          FAIR      57  52  82 N3        30.05R
KALAMAZOO      CLEAR     59  51  75 N6        30.06R
LUDINGTON      CLEAR     56  51  84 N6        30.10R
MARSHALL       CLEAR     57  55  94 CALM      30.05R
MOUNT PLEASANT CLEAR     56  48  75 NW3       30.06R
MUSKEGON       CLEAR     59  48  67 N9        30.08R
SOUTH HAVEN    CLEAR     56  49  78 N5        30.06R
$$
MIZ016>042-080400-
NORTHERN LOWER MICHIGAN

CITY           SKY/WX    TMP DP  RH WIND       PRES   REMARKS
ALPENA         CLEAR     55  49  80 NW3       30.07R
BEAVER ISLAND  CLEAR     49  47  93 CALM      30.09R
BELLAIRE       CLEAR     50  48  93 CALM      30.09R
CADILLAC       CLEAR     51  47  88 CALM      30.08S
CHARLEVOIX     CLEAR     59  52  78 CALM      30.12R
FRANKFORT      CLEAR     54  46  75 CALM      30.10R
GAYLORD        CLEAR     54  50  86 CALM      30.08R
GRAYLING       CLEAR     50  47  91 CALM      30.09R
HARBOR SPRINGS CLEAR     53  49  89 CALM      30.09R
HOUGHTON LAKE  CLEAR     53  48  83 NW5       30.09R
MANISTEE       CLEAR     52  45  76 CALM      30.10R
OSCODA         CLEAR     54  50  84 NW3       30.05R
PELLSTON       CLEAR     52  49  89 CALM      30.09R
ROGERS CITY    CLEAR     57  50  77 NW9       30.08R
TRAVERSE CITY  CLEAR     58  50  75 NW5       30.08R
$$
MIZ007>008-015-080400-
EASTERN UPPER MICHIGAN

CITY           SKY/WX    TMP DP  RH WIND       PRES   REMARKS
KINROSS        CLEAR     48  46  93 NW9       30.08R
MACKINAC ISLAN CLEAR     55  47  74 NW5       30.08R
NEWBERRY       CLEAR     50  45  84 NW6       30.08R
S. S. MARIE    CLEAR     51  43  74 NW9       30.07R
MUNISING         N/A     51  45  79 S7        30.08R
$$
MIZ004>006-011>014-085-080400-
CENTRAL UPPER MICHIGAN

CITY           SKY/WX    TMP DP  RH WIND       PRES   REMARKS
MANISTIQUE     CLEAR     47  44  87 CALM      30.09R
ESCANABA       CLEAR     52  46  82 CALM      30.09R
MENOMINEE      CLEAR     59  46  63 CALM      30.10R
SAWYER-GWINN   CLEAR     53  44  71 CALM      30.11R
$$
MIZ001>003-009>011-084-080400-
WESTERN UPPER MICHIGAN

CITY           SKY/WX    TMP DP  RH WIND       PRES   REMARKS
IRON MOUNTAIN  CLEAR     52  47  83 CALM      30.10R
HOUGHTON       CLEAR     52  44  74 NW9       30.09R
COPPER HARBOR    N/A     58  43  57 CALM      30.08R
IRONWOOD       CLEAR     52  50  93 CALM      30.10R
$$

ABBREVIATIONS USED IN REMARKS
   TC - TEMPERATURE IN CELSIUS
  WCI - WIND CHILL INDEX
   HX - HEAT INDEX
  VSB - VISIBILITY



USA.gov is the U.S. government's official web portal to all federal, state and local government web resources and services.